This is the latest recevied weather packets stored in our database for station/object KL1SF-7. If no packets are shown the sender has not sent any weather packets the latest 10 day(s).
| Time | Temp. | Humidity | Pressure | Rain* | Wind** | Luminosity | Snow |
|---|---|---|---|---|---|---|---|
| 1777516429 | 12.78° C | 15% | 1015.9 hPa | 0 mm | - | - | - |
| 1777515812 | 13.33° C | 15% | 1015.9 hPa | 0 mm | - | - | - |
| 1777515221 | 13.89° C | 15% | 1015.9 hPa | 0 mm | - | - | - |
| 1777514633 | 14.44° C | 16% | 1016.1 hPa | 0 mm | - | - | - |
| 1777514013 | 14.44° C | 15% | 1015.5 hPa | 0 mm | - | - | - |
| 1777513408 | 15° C | 16% | 1015.5 hPa | 0 mm | - | - | - |
| 1777512819 | 15° C | 16% | 1016.1 hPa | 0 mm | - | - | - |
| 1777512219 | 15° C | 16% | 1015.6 hPa | 0 mm | - | - | - |
| 1777511605 | 15.56° C | 16% | 1015.6 hPa | 0 mm | - | - | - |
| 1777511016 | 15.56° C | 16% | 1016.3 hPa | 0 mm | - | - | - |
| 1777510414 | 16.11° C | 15% | 1015.7 hPa | 0 mm | - | - | - |
| 1777509819 | 16.67° C | 15% | 1015.7 hPa | 0 mm | - | - | - |
| 1777509233 | 16.67° C | 15% | 1015.8 hPa | 0 mm | - | - | - |
| 1777508613 | 16.67° C | 15% | 1015.8 hPa | 0 mm | - | - | - |
| 1777508017 | 16.67° C | 15% | 1015.8 hPa | 0 mm | - | - | - |
| 1777507428 | 17.22° C | 15% | 1016.1 hPa | 0 mm | - | - | - |
| 1777506824 | 16.67° C | 15% | 1016.2 hPa | 0 mm | - | - | - |
| 1777505629 | 17.22° C | 14% | 1016.1 hPa | 0 mm | - | - | - |
| 1777505011 | 17.22° C | 14% | 1016.6 hPa | 0 mm | - | - | - |
| 1777504413 | 17.78° C | 14% | 1016.6 hPa | 0 mm | - | - | - |
| 1777503822 | 17.22° C | 14% | 1016.8 hPa | 0 mm | - | - | - |
| 1777503219 | 17.22° C | 13% | 1016.3 hPa | 0 mm | - | - | - |
| 1777502624 | 17.78° C | 13% | 1016.3 hPa | 0 mm | - | - | - |
| 1777502016 | 17.22° C | 14% | 1017.1 hPa | 0 mm | - | - | - |
| 1777501415 | 17.78° C | 14% | 1017.3 hPa | 0 mm | - | - | - |
* Rain since midnight (hover to see other rain measurements)
** Current wind speed in m/s (hover to see current wind gust speed)